Мехельта

Россия / Республика Дагестан     42°47′39″N   46°30′06″E
темп.,
°C
ветер,
м/с
пор.,
м/с
влажн.,
%
обл.,
%
осадки,
мм/ч
давл.,
гПа
погр.,
м
25 июня, сб
сб2500:00+11юз118910 0.3 101011
03:00+11зсз118648 0.3 101111
06:00+14ссз01744 0.0 101180
09:00+17в22671 0.0 1010655
12:00+20св326632 0.8 1009904
15:00+19св326980 2.5 1008860
18:00+17ссв2279100 1.0 1009409
21:00+14юв1193100 1.4 101149
26 июня, вс
вс2600:00+13юв1196100 0.0 101131
03:00+12юз1193100 3.4 101119
06:00+14всв117897 0.0 101076
09:00+17всв2274100 0.0 1009587
12:00+19всв3269100 0.6 1008936
15:00+17ссв3376100 1.6 1008793
18:00+16ссв2283100 1.2 1009327
21:00+14св1187100 1.7 101117
27 июня, пн
пн2700:00+13св1188100 0.1 101210
03:00+12з11890 0.1 101211
06:00+14зсз128111 0.0 1012101
09:00+19ссв11621 0.0 1011694
12:00+22св336140 0.1 10101338
15:00+18ссв337592 0.9 1012727
18:00+17св237956 0.3 1012538
21:00+14св1193100 0.5 101412
28 июня, вт
вт2800:00+14св1185100 0.0 101311
03:00+14зсз227881 0.0 101317
06:00+15сз11760 0.0 101291
09:00+19ссз21570 0.0 1010788
12:00+21ссв325516 0.0 10101311
15:00+20с335580 0.3 10111320
18:00+18ссз226572 0.1 1012309
21:00+14с2280100 0.6 101546
29 июня, ср
ср2900:00+13с1176100 0.2 101516
03:00+12всв11802 0.2 101410
06:00+14зсз01744 0.0 101597
09:00+17всв226033 0.0 10141094
12:00+18св3260100 0.0 10141228
15:00+17св1162100 0.2 1014943
18:00+16в227698 0.1 1014308
21:00+13всв1295100 0.3 101533